軌道要素
Epoch 2011 Dec. 25.0 TT = JDT 2455920.5
T 2011 Dec. 8.70260 TT MPCW
q 1.5063991 (2000.0) P Q
n 0.15703181 Peri. 315.12628 -0.57564434 -0.81761164
a 3.4026005 Node 169.99785 +0.76832758 -0.54586454
e 0.5572801 Incl. 3.97275 +0.27983268 -0.18314777
P 6.28
From 63 observations 2011 Nov. 3-2017 Nov. 19, mean residual 0".5.
|